Time,TemperatureF,DewpointF,PressureIn,WindDirection,WindDirectionDegrees,WindSpeedMPH,WindSpeedGustMPH,Humidity,HourlyPrecipIn,Conditions,Clouds,dailyrainin,SoftwareType,DateUTC
2013-02-24 00:22:00,32.0,14.0,29.95,NE,40,2.0,16.0,47,0.00,,,-99.99,,2013-02-24 08:22:00,
2013-02-24 00:31:00,32.0,14.0,29.95,NE,40,2.0,16.0,47,0.00,,,-99.99,,2013-02-24 08:31:00,
2013-02-24 00:41:00,32.0,14.0,29.95,NE,40,2.0,16.0,47,0.00,,,-99.99,,2013-02-24 08:41:00,
2013-02-24 00:53:00,32.0,14.0,29.95,NE,40,2.0,16.0,47,0.00,,,-99.99,,2013-02-24 08:53:00,
2013-02-24 01:21:00,31.0,11.0,30.30,North,350,4.0,20.0,42,0.00,,,-99.99,,2013-02-24 09:21:00,
2013-02-24 01:31:00,31.0,11.0,30.30,North,350,4.0,20.0,42,0.00,,,-99.99,,2013-02-24 09:31:00,
2013-02-24 01:41:00,31.0,11.0,30.30,North,350,4.0,20.0,42,0.00,,,-99.99,,2013-02-24 09:41:00,
2013-02-24 01:51:00,31.0,11.0,30.30,North,350,4.0,20.0,42,0.00,,,-99.99,,2013-02-24 09:51:00,
2013-02-24 02:21:00,29.0,9.0,30.00,North,0,0.0,12.0,43,0.00,,,-99.99,,2013-02-24 10:21:00,
2013-02-24 02:31:00,29.0,9.0,30.00,North,0,0.0,12.0,43,0.00,,,-99.99,,2013-02-24 10:31:00,
2013-02-24 02:41:00,29.0,9.0,30.00,North,0,0.0,12.0,43,0.00,,,-99.99,,2013-02-24 10:41:00,
2013-02-24 02:51:00,29.0,9.0,30.00,North,0,0.0,12.0,43,0.00,,,-99.99,,2013-02-24 10:51:00,
2013-02-24 03:21:00,28.0,2.0,29.96,North,0,0.0,12.0,32,0.00,,,-99.99,,2013-02-24 11:21:00,
2013-02-24 03:32:00,28.0,2.0,29.96,North,0,0.0,12.0,32,0.00,,,-99.99,,2013-02-24 11:32:00,
2013-02-24 03:41:00,28.0,2.0,29.96,North,0,0.0,12.0,32,0.00,,,-99.99,,2013-02-24 11:41:00,
2013-02-24 03:52:00,28.0,2.0,29.96,North,0,0.0,12.0,32,0.00,,,-99.99,,2013-02-24 11:52:00,
2013-02-24 03:55:00,27.0,1.0,29.95,North,0,0.0,15.0,32,0.00,,,-99.99,,2013-02-24 11:55:00,
2013-02-24 04:21:00,27.0,1.0,29.95,North,0,0.0,15.0,32,0.00,,,-99.99,,2013-02-24 12:21:00,
2013-02-24 04:32:00,27.0,1.0,29.95,North,0,0.0,15.0,32,0.00,,,-99.99,,2013-02-24 12:32:00,
2013-02-24 04:46:00,27.0,1.0,29.95,North,0,0.0,15.0,32,0.00,,,-99.99,,2013-02-24 12:46:00,
2013-02-24 05:25:00,27.0,2.0,29.96,North,0,0.0,12.0,34,0.00,,,-99.99,,2013-02-24 13:25:00,
2013-02-24 05:33:00,27.0,2.0,29.96,North,0,0.0,12.0,34,0.00,,,-99.99,,2013-02-24 13:33:00,
2013-02-24 05:43:00,27.0,2.0,29.96,North,0,0.0,12.0,34,0.00,,,-99.99,,2013-02-24 13:43:00,
2013-02-24 05:52:00,27.0,2.0,29.96,North,0,0.0,12.0,34,0.00,,,-99.99,,2013-02-24 13:52:00,
2013-02-24 06:23:00,27.0,2.0,29.98,SE,130,2.0,20.0,33,0.00,,,-99.99,,2013-02-24 14:23:00,
2013-02-24 06:32:00,27.0,2.0,29.98,SE,130,2.0,20.0,33,0.00,,,-99.99,,2013-02-24 14:32:00,
2013-02-24 06:43:00,27.0,2.0,29.98,SE,130,2.0,20.0,33,0.00,,,-99.99,,2013-02-24 14:43:00,
2013-02-24 06:53:00,27.0,2.0,29.98,SE,130,2.0,20.0,33,0.00,,,-99.99,,2013-02-24 14:53:00,
2013-02-24 07:22:00,27.0,1.0,30.00,East,80,3.0,15.0,32,0.00,,,-99.99,,2013-02-24 15:22:00,
2013-02-24 07:32:00,27.0,1.0,30.00,East,80,3.0,15.0,32,0.00,,,-99.99,,2013-02-24 15:32:00,
2013-02-24 07:42:00,27.0,1.0,30.00,East,80,3.0,15.0,32,0.00,,,-99.99,,2013-02-24 15:42:00,
2013-02-24 07:52:00,27.0,1.0,30.00,East,80,3.0,15.0,32,0.00,,,-99.99,,2013-02-24 15:52:00,
2013-02-24 08:21:00,28.0,0.0,30.50,ESE,120,5.0,18.0,29,0.00,,,-99.99,,2013-02-24 16:21:00,
2013-02-24 08:31:00,28.0,0.0,30.50,ESE,120,5.0,18.0,29,0.00,,,-99.99,,2013-02-24 16:31:00,
2013-02-24 08:41:00,28.0,0.0,30.50,ESE,120,5.0,18.0,29,0.00,,,-99.99,,2013-02-24 16:41:00,
2013-02-24 08:52:00,28.0,0.0,30.50,ESE,120,5.0,18.0,29,0.00,,,-99.99,,2013-02-24 16:52:00,
2013-02-24 09:21:00,30.0,1.0,30.45,SE,140,3.0,14.0,28,0.00,,,-99.99,,2013-02-24 17:21:00,
2013-02-24 09:32:00,30.0,1.0,30.45,SE,140,3.0,14.0,28,0.00,,,-99.99,,2013-02-24 17:32:00,
2013-02-24 09:41:00,30.0,1.0,30.45,SE,140,3.0,14.0,28,0.00,,,-99.99,,2013-02-24 17:41:00,
2013-02-24 09:52:00,30.0,1.0,30.45,SE,140,3.0,14.0,28,0.00,,,-99.99,,2013-02-24 17:52:00,
2013-02-24 10:22:00,32.0,4.0,30.77,North,0,0.0,14.0,30,0.00,,,-99.99,,2013-02-24 18:22:00,
2013-02-24 10:31:00,32.0,4.0,30.77,North,0,0.0,14.0,30,0.00,,,-99.99,,2013-02-24 18:31:00,
2013-02-24 10:42:00,32.0,4.0,30.77,North,0,0.0,14.0,30,0.00,,,-99.99,,2013-02-24 18:42:00,
2013-02-24 10:51:00,32.0,4.0,30.77,North,0,0.0,14.0,30,0.00,,,-99.99,,2013-02-24 18:51:00,
2013-02-24 11:22:00,35.0,4.0,30.12,NNE,30,3.0,16.0,26,0.00,,,-99.99,,2013-02-24 19:22:00,
2013-02-24 11:32:00,35.0,4.0,30.12,NNE,30,3.0,16.0,26,0.00,,,-99.99,,2013-02-24 19:32:00,
2013-02-24 11:41:00,35.0,4.0,30.12,NNE,30,3.0,16.0,26,0.00,,,-99.99,,2013-02-24 19:41:00,
2013-02-24 11:51:00,35.0,4.0,30.12,NNE,30,3.0,16.0,26,0.00,,,-99.99,,2013-02-24 19:51:00,
2013-02-24 12:21:00,38.0,5.0,30.12,North,360,2.0,16.0,25,0.00,,,-99.99,,2013-02-24 20:21:00,
2013-02-24 12:31:00,38.0,5.0,30.12,North,360,2.0,16.0,25,0.00,,,-99.99,,2013-02-24 20:31:00,
2013-02-24 12:41:00,38.0,5.0,30.12,North,360,2.0,16.0,25,0.00,,,-99.99,,2013-02-24 20:41:00,
2013-02-24 12:52:00,38.0,5.0,30.12,North,360,2.0,16.0,25,0.00,,,-99.99,,2013-02-24 20:52:00,
2013-02-24 13:21:00,39.0,6.0,30.11,North,0,0.0,19.0,25,0.00,,,-99.99,,2013-02-24 21:21:00,
2013-02-24 13:32:00,39.0,6.0,30.11,North,0,0.0,19.0,25,0.00,,,-99.99,,2013-02-24 21:32:00,
2013-02-24 13:41:00,39.0,6.0,30.11,North,0,0.0,19.0,25,0.00,,,-99.99,,2013-02-24 21:41:00,
2013-02-24 13:52:00,39.0,6.0,30.11,North,0,0.0,19.0,25,0.00,,,-99.99,,2013-02-24 21:52:00,
2013-02-24 14:21:00,39.0,5.0,30.12,SSE,150,2.0,16.0,24,0.00,,,-99.99,,2013-02-24 22:21:00,
2013-02-24 14:31:00,39.0,5.0,30.12,SSE,150,2.0,16.0,24,0.00,,,-99.99,,2013-02-24 22:31:00,
2013-02-24 14:41:00,39.0,5.0,30.12,SSE,150,2.0,16.0,24,0.00,,,-99.99,,2013-02-24 22:41:00,
2013-02-24 14:51:00,39.0,5.0,30.12,SSE,150,2.0,16.0,24,0.00,,,-99.99,,2013-02-24 22:51:00,
2013-02-24 15:21:00,39.0,8.0,30.12,East,90,1.0,16.0,27,0.00,,,-99.99,,2013-02-24 23:21:00,
2013-02-24 15:31:00,39.0,8.0,30.12,East,90,1.0,16.0,27,0.00,,,-99.99,,2013-02-24 23:31:00,
2013-02-24 15:41:00,39.0,8.0,30.12,East,90,1.0,16.0,27,0.00,,,-99.99,,2013-02-24 23:41:00,
2013-02-24 15:52:00,39.0,8.0,30.12,East,90,1.0,16.0,27,0.00,,,-99.99,,2013-02-24 23:52:00,
2013-02-24 16:21:00,41.0,6.0,30.12,West,260,1.0,16.0,23,0.00,,,-99.99,,2013-02-25 00:21:00,
2013-02-24 16:31:00,41.0,6.0,30.12,West,260,1.0,16.0,23,0.00,,,-99.99,,2013-02-25 00:31:00,
2013-02-24 16:41:00,41.0,6.0,30.12,West,260,1.0,16.0,23,0.00,,,-99.99,,2013-02-25 00:41:00,
2013-02-24 16:51:00,41.0,6.0,30.12,West,260,1.0,16.0,23,0.00,,,-99.99,,2013-02-25 00:51:00,
2013-02-24 17:00:00,39.0,3.0,30.15,North,0,0.0,16.0,22,0.00,,,-99.99,,2013-02-25 01:00:00,
2013-02-24 17:21:00,39.0,3.0,30.15,North,0,0.0,16.0,22,0.00,,,-99.99,,2013-02-25 01:21:00,
2013-02-24 17:32:00,39.0,3.0,30.15,North,0,0.0,16.0,22,0.00,,,-99.99,,2013-02-25 01:32:00,
2013-02-24 17:42:00,39.0,3.0,30.15,North,0,0.0,16.0,22,0.00,,,-99.99,,2013-02-25 01:42:00,
2013-02-24 17:52:00,39.0,3.0,30.15,North,0,0.0,16.0,22,0.00,,,-99.99,,2013-02-25 01:52:00,
2013-02-24 18:21:00,33.0,5.0,30.17,North,0,0.0,16.0,30,0.00,,,-99.99,,2013-02-25 02:21:00,
2013-02-24 18:31:00,33.0,5.0,30.17,North,0,0.0,16.0,30,0.00,,,-99.99,,2013-02-25 02:31:00,
2013-02-24 18:41:00,33.0,5.0,30.17,North,0,0.0,16.0,30,0.00,,,-99.99,,2013-02-25 02:41:00,
2013-02-24 18:52:00,33.0,5.0,30.17,North,0,0.0,16.0,30,0.00,,,-99.99,,2013-02-25 02:52:00,
2013-02-24 19:21:00,31.0,3.0,30.21,North,0,0.0,16.0,30,0.00,,,-99.99,,2013-02-25 03:21:00,
2013-02-24 19:31:00,31.0,3.0,30.21,North,0,0.0,16.0,30,0.00,,,-99.99,,2013-02-25 03:31:00,
2013-02-24 19:41:00,31.0,3.0,30.21,North,0,0.0,16.0,30,0.00,,,-99.99,,2013-02-25 03:41:00,
2013-02-24 19:51:00,31.0,3.0,30.21,North,0,0.0,16.0,30,0.00,,,-99.99,,2013-02-25 03:51:00,
2013-02-24 21:22:00,30.0,5.0,30.23,North,0,0.0,16.0,34,0.00,,,-99.99,,2013-02-25 05:22:00,
2013-02-24 21:31:00,30.0,5.0,30.23,North,0,0.0,16.0,34,0.00,,,-99.99,,2013-02-25 05:31:00,
2013-02-24 21:41:00,30.0,5.0,30.23,North,0,0.0,16.0,34,0.00,,,-99.99,,2013-02-25 05:41:00,
2013-02-24 21:52:00,30.0,5.0,30.23,North,0,0.0,16.0,34,0.00,,,-99.99,,2013-02-25 05:52:00,
2013-02-24 22:21:00,28.0,5.0,30.26,North,0,0.0,16.0,37,0.00,,,-99.99,,2013-02-25 06:21:00,
2013-02-24 22:31:00,28.0,5.0,30.26,North,0,0.0,16.0,37,0.00,,,-99.99,,2013-02-25 06:31:00,
2013-02-24 22:41:00,28.0,5.0,30.26,North,0,0.0,16.0,37,0.00,,,-99.99,,2013-02-25 06:41:00,
2013-02-24 22:51:00,28.0,5.0,30.26,North,0,0.0,16.0,37,0.00,,,-99.99,,2013-02-25 06:51:00,
2013-02-24 23:21:00,29.0,0.0,30.27,North,0,0.0,16.0,28,0.00,,,-99.99,,2013-02-25 07:21:00,
2013-02-24 23:31:00,29.0,0.0,30.27,North,0,0.0,16.0,28,0.00,,,-99.99,,2013-02-25 07:31:00,
2013-02-24 23:41:00,29.0,0.0,30.27,North,0,0.0,16.0,28,0.00,,,-99.99,,2013-02-25 07:41:00,
2013-02-24 23:51:00,29.0,0.0,30.27,North,0,0.0,16.0,28,0.00,,,-99.99,,2013-02-25 07:51:00,